This demonstration page uses our WeatherBlox Daily Observations layout. Learn more.

Left ArrowRight Arrow

Hourly Observations for June 13, 2021

Temp ( °F °C ) Dew Point ( °F °C ) Humidity (%) Winds ( mph kmh ) Pressure ( in mb ) Visibility ( mi km ) Precip ( " mm )
12:48 am 00:48 Mostly Cloudy with Nearby Thunderstorms 77 25 68 20 74 74 N 6 9 29.87 1012 10 16 0.00 0.00
12:53 am 00:53 Cloudy with Nearby Thunderstorms 76 24.4 68 20 77 77 N 6 9 29.88 1012 10 16 0.00 0.00
1:27 am 01:27 Mostly Cloudy with Light Rain 74 23.3 70 21.1 88 88 NNW 5 7 29.87 1011 8 13 0.01 0.25
1:53 am 01:53 Partly Cloudy with Light Rain 73 22.8 71 21.7 94 94 W 3 6 29.84 1011 9 14 0.01 0.25
2:53 am 02:53 Clear with Mist and Fog 72 22.2 70 21.1 94 94 N N/A 29.84 1011 5 8 0.01 0.25
3:53 am 03:53 Clear with Mist and Fog 71 21.7 70 21.1 96 96 N N/A 29.84 1011 5 8 N/A
4:53 am 04:53 Clear with Mist and Fog 70 21.1 69 20.6 97 97 N N/A 29.85 1011 3 5 N/A
5:08 am 05:08 Clear with Mist and Fog 70 21.1 69 20.6 97 97 N N/A 29.85 1011 2 3 N/A
5:21 am 05:21 Clear with Mist and Fog 69 20.6 68 20 96 96 N N/A 29.85 1011 3 5 N/A
5:41 am 05:41 Clear with Mist and Fog 70 21.1 69 20.6 97 97 N N/A 29.85 1011 2 2 N/A
5:53 am 05:53 Clear with Mist and Fog 69 20.6 68 20 96 96 N N/A 29.85 1011 2 2 N/A
5:58 am 05:58 Clear with Mist and Fog 69 20.6 68 20 96 96 N N/A 29.85 1011 2 3 N/A
6:09 am 06:09 Clear with Mist and Fog 69 20.6 68 20 96 96 N N/A 29.85 1011 4 6 N/A
6:53 am 06:53 Partly Cloudy with Mist and Fog 71 21.7 70 21.1 96 96 N 6 9 29.88 1012 6 10 N/A
7:53 am 07:53 Sunny 75 23.9 70 21.1 84 84 N N/A 29.88 1012 8 13 N/A
8:53 am 08:53 Sunny 79 26.1 69 20.6 72 72 N 3 6 29.89 1012 10 16 N/A
9:53 am 09:53 Sunny 81 27.2 71 21.7 72 72 N 6 9 29.90 1013 10 16 N/A
10:53 am 10:53 Partly Cloudy with Light Rain 83 28.3 71 21.7 67 67 N N/A 29.90 1012 10 16 0.00 0.00
11:53 am 11:53 Sunny 86 30 70 21.1 59 59 VRB 6 9 29.90 1013 10 16 0.00 0.00
12:53 pm 12:53 Partly Cloudy 86 30 71 21.7 61 61 N N/A 29.90 1013 10 16 0.00 0.00
1:53 pm 13:53 Mostly Cloudy 87 30.6 73 22.8 63 63 NW 6 9 29.89 1012 10 16 0.00 0.00
2:53 pm 14:53 Partly Cloudy with Light Rain 85 29.4 70 21.1 61 61 NNW 7 11 29.88 1012 10 16 0.00 0.00
3:53 pm 15:53 Mostly Cloudy 88 31.1 68 20 52 52 NNW 10 17 29.85 1011 10 16 0.00 0.00
4:53 pm 16:53 Sunny with Light Rain 89 31.7 68 20 50 50 N 10 17 29.83 1010 10 16 0.00 0.00
5:53 pm 17:53 Partly Cloudy with Light Rain 85 29.4 67 19.4 55 55 NW 8 13 29.85 1011 10 16 0.00 0.00
6:53 pm 18:53 Sunny 86 30 66 18.9 51 51 NNW 7 11 29.86 1011 10 16 0.00 0.00
7:53 pm 19:53 Partly Cloudy with Light Rain 82 27.8 63 17.2 53 53 NNW 6 9 29.85 1011 10 16 0.00 0.00
8:53 pm 20:53 Sunny with Light Rain 81 27.2 61 16.1 51 51 NNW 8 13 29.86 1011 10 16 0.00 0.00
9:53 pm 21:53 Clear 77 25 59 15 54 54 NNW 7 11 29.88 1012 10 16 0.00 0.00
10:53 pm 22:53 Clear 69 20.6 62 16.7 78 78 N 3 6 29.91 1013 10 16 N/A
11:53 pm 23:53 Clear 66 18.9 63 17.2 90 90 N N/A 29.93 1013 10 16 N/A

Powered by AerisWeather